Flag for U.S.A. Weather past 2 weeks in St. Louis, Missouri, U.S.A.

Now
75 °F

Scattered clouds.


Feels Like: 78 °F
Forecast: 63 / 84 °F
Wind: 6 mph from South

Location: Lambert-St. Louis International Airport

Current Time: Sep 19, 2014 at 9:19:27 PM

Latest Report: Sep 19, 2014 at 7:51 PM


Visibility: 10 mi

Pressure: 29.99 "Hg

Humidity: 54%

Dew point: 57 °F

Location of St. LouisLocation

Historic Weather in St. Louis — Graph

°F

St. Louis temperature yesterday

Maximum temperature yesterday: 75 °F (at 3:51 PM)
Minimum temperature yesterday: 61 °F (at 11:51 PM)
Average temperature yesterday: 66 °F

Past Weeks' High & Low Weather Summary

 TemperatureHumidityPressure
High96 °F (Sep 5, 3:51 PM)94% (Sep 10, 5:57 PM)30.42 "Hg (Sep 10, 5:57 PM)
Low45 °F (Sep 13, 5:51 AM)37% (Sep 7, 3:51 PM)29.64 "Hg (Sep 10, 5:51 AM)
Average67 °F71%30.08 "Hg
* Reported Sep 4 7:51 PM — Sep 19 7:51 PM, St. Louis, Weather by CustomWeather, © 2014

Note: Actual official high and low records may vary slightly from our data, if they occured in-between our weather recording intervals... More about our weather records

Advertising

St. Louis weather history for previous 24 hours

 ConditionsComfort  
Time TempWeatherWind HumidityBarometerVisibility
7:51 PM
Sep 19
75 °FScattered clouds.6 mph54%29.99 "Hg10 mi
6:51 PM77 °FScattered clouds.5 mph50%29.99 "Hg10 mi
5:51 PM78 °FScattered clouds.7 mph48%30.00 "Hg10 mi
4:51 PM79 °FScattered clouds.9 mph48%29.99 "Hg10 mi
3:51 PM79 °FScattered clouds.10 mph47%30.01 "Hg10 mi
2:51 PM79 °FPassing clouds.6 mph47%30.02 "Hg10 mi
1:51 PM77 °FScattered clouds.12 mph50%30.03 "Hg10 mi
12:51 PM75 °FScattered clouds.7 mph52%30.06 "Hg10 mi
11:51 AM73 °FPassing clouds.No wind55%30.09 "Hg10 mi
10:51 AM71 °FPassing clouds.7 mph59%30.09 "Hg9 mi
9:51 AM68 °FPassing clouds.8 mph63%30.10 "Hg10 mi
8:51 AM62 °FPassing clouds.7 mph75%30.09 "Hg10 mi
7:51 AM59 °FPassing clouds.5 mph84%30.09 "Hg9 mi
6:51 AM56 °FPassing clouds.5 mph87%30.07 "Hg7 mi
5:51 AM56 °FClear.3 mph87%30.07 "Hg8 mi
4:51 AM57 °FClear.5 mph87%30.06 "Hg9 mi
3:51 AM58 °FClear.6 mph84%30.06 "Hg9 mi
2:51 AM59 °FClear.5 mph81%30.06 "Hg10 mi
1:51 AM61 °FClear.3 mph78%30.07 "Hg10 mi
12:51 AM61 °FClear.6 mph78%30.06 "Hg10 mi
11:51 PM
Sep 18
61 °FPassing clouds.6 mph78%30.06 "Hg10 mi
10:51 PM62 °FPassing clouds.6 mph75%30.06 "Hg10 mi
9:51 PM65 °FPassing clouds.No wind68%30.06 "Hg10 mi
Weather by CustomWeather, © 2014

See weather overviewHow to use our weather pages